sat.trackr.live / text

‹ back to catalog

DMC3-FM1

NORAD 40715 · 2015-032A

PAYLOAD ACTIVE UNKNOWN

§ Identity

Operator
Country
UK
Launch date
2015-07-10
Launch site
SRILR
Launch vehicle
Mass (kg)
RCS (m²)
1.57

Purposes: earth_obs

External: N2YO · Heavens-Above · Gunter

§ Orbital elements

Epoch: 2026-09-13T03:49:40.246176Z

Period
96.92 min
Inclination
97.6325°
Eccentricity
0.0006748
Mean motion
14.85814634 rev/d
Perigee alt
606.3 km
Apogee alt
615.7 km
Semi-major
6,989.2 km
B*
3.0091e-7
RAAN
117.8317°
Arg perigee
115.0717°
Mean anomaly
245.1200°
Rev number
60,297

§ Raw data

DMC3-FM11 40715U 15032A   26256.15949359 -.00000049  00000+0  30091-6 0  99962 40715  97.6325 117.8317 0006748 115.0717 245.1200 14.85814634602978

JSON: /api/v1/satellites/40715 · /tle

For live sub-satellite position, see the globe view (requires WebGL).

§ Visibility from observer

Set your observer location to see the next 7 days of passes ≥ 10°. The values pass through the URL so the page stays shareable.

No JS? Fill the form by hand. The geolocation button needs JavaScript.

§ Radio — SatNOGS DB

ModeDescriptionDownlinkUplink
FM Mode X (375MHz) 8.213 GHz
BPSK Telemetry 2.230 GHz

2 transmitters · refreshed weekly from db.satnogs.org